LiveATC.Net - Listen to live air traffic control over the Internet!


ICAO: YHBA  IATA: HVB   Airport: Hervey Bay Airport
City: Hervey Bay   State/Province: Queensland
Country: Australia   Continent: Oceania
YBBN METAR Weather: YBBN 120600Z 07011KT 9999 FEW025 26/17 Q1011 NOSIG
YHBA Flight Activity (FlightAware)

YHBA CTAF
Feed Status: UP   Listeners: 0
Listen in your browser - HTML5 player (in browser, HTML5)
Listen in your browser - requires Flash (in browser, requires Flash)
Click here to listen with your own player (launches your MP3 player)
YHBA CTAF Audio Archives
FacilityFrequency
Hervey Bay CTAF/UNICOM126.550

NOTICE

Unauthorized use prohibited. See LiveATC.net Terms of Service


Find LiveATC Audio Streams


Airport/ARTCC Code

Frequency Search
(e.g., 124.400, 128.75)
Site-wide search
 


Browse LiveATC Feeds
Top 50 LiveATC Feeds
Bad Weather Areas

LiveATC FAQ
Offer a LiveATC Feed
Contact LiveATC.net
Press Inquiries

LiveATC on iPhone
LiveATC on Android

Windows Phone
Windows 8/10

LiveATC Mobile
(Mobile browser)

ATC Audio Archives
Interesting Recordings

LiveATC Forums


Home Page
About LiveATC.net
Make a Donation
Terms of Use
Privacy Policy

Canadian Air Freqs

AIRMETs/SIGMETs

FAA Airport Status
Nat'l Airspace Status
Arrival Demand Charts


Server Software By:
Icecast.org
Liquidsoap